Regional Weather Roundup
Issued by NWS

Home | Current Version | Previous Version | Graphics & Text | Print | Product List | Glossary On
Versions: 1 2 3 4 5 6 7 8 9 10 11 12 13 14 15 16 17 18 19 20 21 22 23 24 25 26 27
000
ASUS45 KSLC 020110
RWRUT

UTAH REGIONAL WEATHER ROUNDUP
NATIONAL WEATHER SERVICE SALT LAKE CITY UT
700 PM MDT SUN MAY 01 2016

UTZ001>011-023>025-020200-

NORTHERN UTAH

CITY           SKY/WX    TMP DP  RH WIND       PRES   REMARKS
BRIGHAM CITY   PTSUNNY   58  20  23 E15G29    30.08R
HILL AFB       MOSUNNY   54  26  34 E21G29    30.06R
LOGAN          MOSUNNY   58  23  26 E13G20    30.09S
OGDEN          PTSUNNY   57  26  30 MISG      30.05R
PROVO AIRPORT  MOSUNNY   61  28  29 NW9       30.02R
SALT LAKE CITY PTSUNNY   63  25  23 E10       30.02R
VERNAL         SUNNY     53  24  32 N17       30.10R
WENDOVER       MOSUNNY   57  28  33 NE7       30.08S
HEBER CITY     CLOUDY    54  27  35 N6        30.05S

$$

UTZ012>022-026-027-020200-

SOUTHERN/CENTRAL UTAH

CITY           SKY/WX    TMP DP  RH WIND       PRES   REMARKS
BLANDING       CLOUDY    44  40  85 NE7       30.16S
BRYCE CANYON   CLOUDY    42  35  76 SW6       30.10R
CEDAR CITY     CLOUDY    49  37  63 E10       30.04R
DELTA          CLOUDY    59  28  31 NE8       30.02R
HANKSVILLE     CLOUDY    61  30  31 CALM      30.05S
MILFORD        CLOUDY    59  28  30 N14       30.00R
MOAB/CYNLANDS  CLOUDY    58  34  40 S8        30.02R
PRICE          CLOUDY    53  25  33 NE9       30.08R
ST GEORGE      PTCLDY    70  39  32 NE10      29.96S
KANAB          CLOUDY    55  37  50 E9        30.07R

$$

REGIONAL REPORTS     COLORADO/ARIZONA

CITY           SKY/WX    TMP DP  RH WIND       PRES   REMARKS
CRAIG, CO      CLOUDY    53  26  35 E9        30.05R
GRAND JUNCTION CLOUDY    55  35  47 E16       30.03R
RIFLE          LGT RAIN  52  34  50 E18G28    30.04R
MONTROSE       CLOUDY    49  34  56 E3        30.11R
CORTEZ         CLOUDY    43  38  82 S8        30.11R
PAGE, AZ       MOSUNNY   56  37  49 MISG      30.03S
GRAND CANYON   PTSUNNY   49  34  56 NE9       30.07R
KINGMAN        CLOUDY    65  32  29 SE10      29.96R
FLAGSTAFF      PTSUNNY   43  40  89 SE6       30.07R

$$

REGIONAL REPORTS    NEVADA/IDAHO/WYOMING

CITY           SKY/WX    TMP DP  RH WIND       PRES   REMARKS
LAS VEGAS, NV  MOSUNNY   73  35  25 E5        29.87R
ELY            CLOUDY    51  30  44 N9        30.07S
ELKO           PTSUNNY   59  31  34 NE10      30.05S
POCATELLO, ID  MOSUNNY   64  25  22 E9        30.07S
BURLEY         SUNNY     61  29  29 SE12      30.06R
EVANSTON, WY   CLOUDY    42  21  43 E18G29    30.15S
ROCK SPRINGS   SUNNY     44  23  43 NE24G35   30.18S
KEMMERER         N/A     43  21  42 E18G24    30.20S

$$




USA.gov is the U.S. government's official web portal to all federal, state and local government web resources and services.